Location: Bastrop State Park
(30.1090°N, 97.2819°W)
Time: 07:14:56
(UTC-05:00)

Daily predictions for brighter satellites

Satellite Brightness Start Highest point End
(mag) Time Altitude Azimuth Time Altitude Azimuth Time Altitude Azimuth
NOSS 3-2 (C) 3.6 19:37:36 10° S 19:43:17 49° ESE 19:49:19 10° NE
Cosmos 2056 Rocket 4.5 19:39:02 10° N 19:43:41 29° ENE 19:48:19 10° SE
MSX 3.9 19:38:40 10° SSE 19:44:24 89° ENE 19:50:10 10° NNW
CZ-4C R/B 3.6 19:39:46 10° SW 19:44:37 39° NW 19:49:57 10° NNE
Milstar 3 4.3 19:37:15 10° W 19:46:32 82° S 20:04:47 11° E
ATLAS 5 CENTAUR R/B 2.3 19:43:28 10° S 19:47:43 36° ESE 19:52:11 10° NE
COSMO-SKYMED 1 3.3 19:43:56 10° N 19:48:12 58° WNW 19:52:27 10° SSW
SWIFT 4.2 19:45:51 10° SW 19:49:04 21° S 19:52:17 10° SE
Cosmos 1953 3.7 19:48:56 10° SE 19:51:35 17° E 19:54:16 10° NE
SAR-Lupe-1 4.4 19:48:15 10° SE 19:51:36 42° ENE 19:54:59 10° N
Cosmos 1371 Rocket 4.3 19:48:11 10° N 19:53:19 48° ENE 19:58:26 10° SE
Cosmos 1818 4.1 19:48:35 10° NW 19:53:57 63° WSW 19:59:16 10° SSE
SL-16 R/B 2.2 19:48:43 10° SSW 19:54:22 75° ESE 20:00:03 10° NNE
Aureole 2 Rocket 2.9 19:52:19 10° S 19:56:40 73° ESE 20:01:02 10° NNE
Cosmos 1464 Rocket 4.1 19:56:39 10° SSE 20:02:43 54° E 20:08:44 10° NNE
Cosmos 1805 4.1 20:05:11 10° SSE 20:08:33 28° E 20:11:56 10° NNE
HJ-1C 4.1 20:06:39 10° SE 20:09:38 31° ENE 20:12:39 10° N
Cosmos 1624 Rocket 4.0 20:06:10 10° N 20:11:18 57° ENE 20:16:22 10° SSE
GPS 2-05 Rocket1 3.3 20:08:56 10° WNW 20:12:13 53° SSW 20:14:49 16° SE
Meteor 1-22 Rocket 4.2 20:08:33 10° S 20:13:59 80° W 20:19:18 10° N
SL-8 R/B 4.1 20:11:15 10° SSW 20:15:44 42° SE 20:19:07 16° ENE
Cosmos 921 Rocket 4.5 20:12:27 10° NNW 20:16:21 38° W 20:20:13 10° SSW
Cosmos 1441 Rocket 4.3 20:14:09 10° NNW 20:17:43 45° W 20:21:18 10° SSW
Meteor 1-29 2.9 20:16:39 10° NNE 20:20:07 59° E 20:23:33 10° S
METEOR-M 4.1 20:17:09 10° SSE 20:22:26 64° ENE 20:27:43 10° N
Delta 168 4.3 20:18:06 10° WSW 20:22:52 45° SSE 20:27:18 21° ESE
Meteor 1-28 Rocket 4.5 20:20:32 10° N 20:24:05 43° WNW 20:27:36 10° SSW
TIMED 4.4 20:19:46 10° N 20:24:08 70° ENE 20:28:28 10° SSE
Cosmos 1544 4.0 20:21:00 10° SSE 20:24:11 27° E 20:27:24 10° NNE
SJ-6B 3.1 20:20:22 10° S 20:24:14 69° W 20:28:13 10° NNW
Cosmos 1378 3.0 20:21:48 10° N 20:25:30 73° E 20:29:13 10° S
Cosmos 2278 Rocket 2.7 20:20:19 10° NNW 20:25:53 61° WSW 20:31:25 10° S
USA 215 4.3 20:20:56 10° NNE 20:27:05 46° NW 20:33:14 10° WSW
Cosmos 1707 4.5 20:25:05 10° NNW 20:28:36 35° W 20:32:07 10° SSW
FENGYUN 3A 4.3 20:25:39 18° SE 20:28:58 34° ENE 20:33:47 10° N
Cosmos-2242 3.1 20:25:17 10° SSE 20:29:28 50° E 20:33:42 10° NNE
Cosmos 2297 3.7 20:24:03 10° NNW 20:29:41 64° ENE 20:35:14 10° SSE
Meteor 1-24 Rocket 3.8 20:26:07 10° N 20:31:43 77° W 20:37:06 10° S
Cosmos 1076 Rocket 3.5 20:27:30 10° N 20:31:46 58° E 20:36:02 10° SSE
Abrixas 2.6 20:29:01 10° SSW 20:31:55 47° SE 20:32:05 46° ESE
Cosmos 1758 3.3 20:28:11 10° S 20:32:11 64° E 20:36:14 10° NNE
Helios 1B rocket 3.0 20:35:13 10° N 20:39:16 58° WNW 20:43:17 10° SSW
ISS -1.7 20:36:43 10° S 20:38:15 21° S 20:38:15 21° S
Cosmos 1452 Rocket 4.0 20:35:39 10° N 20:40:32 39° ENE 20:41:52 33° ESE
Cosmos 1603 3.6 20:35:47 10° S 20:41:25 67° ESE 20:47:08 10° NNE
Resurs 01 Rocket 1.6 20:38:55 10° S 20:43:22 85° W 20:47:50 10° NNW
Cosmos 1408 Rocket 3.4 20:40:56 10° N 20:45:16 76° E 20:48:50 15° S
SeaSat 1 2.4 20:40:49 10° NNE 20:45:42 61° ESE 20:50:34 10° SSW
SEDSat Delta rocket 4.0 20:40:11 10° W 20:46:58 82° N 20:50:22 32° E
Resurs 1-3 3.4 20:43:18 12° SSE 20:47:16 81° ENE 20:51:40 10° N
CZ-4B DEB 4.2 20:48:46 27° NNE 20:48:46 27° NNE 20:50:29 10° N
Cosmos 468 4.4 20:45:14 10° SSW 20:50:30 84° ESE 20:55:46 10° NNE
FengYun 1-2 T 4.1 20:45:29 10° SSE 20:51:01 82° ENE 20:56:32 10° N
GPS 2-04 Rocket1 2.9 20:59:22 10° WSW 21:02:16 57° SW 21:02:16 57° SW
ATLAS CENTAUR R/B 2.5 20:59:56 10° NW 21:03:41 38° WSW 21:05:11 26° SSW
Intelsat 5-2 Rocket 4.0 21:00:00 10° WSW 21:05:24 33° S 21:05:24 33° S
ALOS 2.1 21:04:36 44° SSE 21:06:06 89° ENE 21:10:46 10° NNW
Atlas Centaur 2 3.0 21:00:30 10° W 21:08:57 68° SSW 21:11:38 43° SE
Cosmos 1269 Rocket 4.0 21:05:47 10° SSW 21:11:03 82° WNW 21:16:22 10° NNE
Meteor 1-21 Rocket 4.0 21:06:04 10° N 21:11:38 86° E 21:13:43 40° S
Cosmos 1743 Rocket 4.3 21:07:41 10° N 21:10:41 41° NNE 21:10:41 41° NNE
ASC 2 Rocket 4.2 21:10:37 10° WSW 21:13:32 29° SSW 21:13:32 29° SSW
ASTRO E2 3.2 21:10:34 10° W 21:13:54 56° WNW 21:13:54 56° WNW
CZ-3C R/B 4.5 20:18:01 10° W 21:15:26 34° SW 21:23:40 14° SSE
Cosmos 1048 Rocket 4.0 21:12:27 10° SSW 21:17:47 84° WNW 21:23:05 10° NNE
Nadezhda 4 Rocket 3.9 21:14:40 10° N 21:20:57 89° E 21:23:27 39° S
OAO 3 Rocket 3.9 21:19:29 10° WNW 21:23:54 46° N 21:23:54 46° N
Cosmos 1092 Rocket 3.9 21:19:49 10° N 21:25:38 67° ENE 21:25:38 67° ENE
ATLAS 5 CENTAUR R/B 4.2 21:28:56 10° W 21:32:27 20° NW 21:36:10 10° N
Cosmos 1634 Rocket 3.8 21:33:48 79° NE 21:33:48 79° NE 21:39:43 10° N
NOSS 3-3 (A) 4.5 21:26:18 10° NNW 21:33:59 81° WSW 21:36:18 51° SSE
NOSS 3-3 (C) 4.5 21:26:24 10° NNW 21:34:06 82° WSW 21:36:22 52° SSE
ASTEX 1 4.3 21:29:44 10° N 21:34:25 45° W 21:39:03 10° SSW
CENTAUR R/B 2.3 21:30:51 10° SSW 21:36:16 78° SW 21:36:16 78° SW
Cosmos 2369 Rocket 4.5 22:24:09 10° NNW 22:25:24 17° NNW 22:25:24 17° NNW
